Location: Unspecified
(51.0950°N, 12.9690°E)
Time: 15:22:57
(UTC+00:00)

CENTAUR R/B - Pass Details

Date: 28 October 2021
Orbit: 728 x 1459 km, 63.4° (Epoch: 26 November)

Event Time Altitude Azimuth Distance (km) Brightness Sun altitude
Rises 18:27:53 0° 312° (NW) 4,016 6.6 -25.4°
Reaches altitude 10° 18:30:30 10° 316° (NW) 3,150 5.8 -25.8°
Maximum altitude 18:38:14 63° 38° (NE) 1,477 3.2 -27.0°
Enters shadow 18:40:07 52° 87° (E) 1,657 3.2 -27.3°
